WZZ3UA LYPG-LHBP

Flight info

Callsign WZZ3UA
Flight time 1h 2m
Altitude 36000
Route NIK DCT GACMO DCT SIVLA DCT BAREB DCT ULZAK
Aircraft A320/M-SDE3FGHIRWY/LB1

Departure

Time 2026-04-30 18:14
Airport Podgorica Airport / Podgorica Golubovci Airbase (LYPG)

Arrival

Time 2026-04-30 19:16
Airport Budapest Liszt Ferenc International Airport (LHBP)
Time Latitude Longitude Altitude Speed Heading
2026-04-30 17:48 42.36744 19.24750 106 ft 0 kts 324°
2026-04-30 18:07 42.36751 19.24759 106 ft 1 kts 76°
2026-04-30 18:08 42.36658 19.24838 105 ft 9 kts 155°
2026-04-30 18:09 42.36624 19.25107 111 ft 8 kts 95°
2026-04-30 18:10 42.36305 19.25224 109 ft 20 kts 186°
2026-04-30 18:11 42.35627 19.25157 107 ft 28 kts 185°
2026-04-30 18:11 42.35017 19.25094 107 ft 31 kts 185°
2026-04-30 18:12 42.34859 19.25065 108 ft 1 kts 51°
2026-04-30 18:13 42.34899 19.25080 108 ft 1 kts
2026-04-30 18:13 42.35431 19.25136 109 ft 95 kts
2026-04-30 18:14 42.37653 19.25378 767 ft 150 kts
2026-04-30 18:15 42.40932 19.25703 2299 ft 172 kts
2026-04-30 18:15 42.44874 19.26091 3919 ft 195 kts
2026-04-30 18:16 42.47354 19.24539 5293 ft 214 kts 314°
2026-04-30 18:16 42.49234 19.21316 6717 ft 221 kts 315°
2026-04-30 18:17 42.49869 19.20233 7164 ft 222 kts 314°
2026-04-30 18:17 42.50835 19.18589 7854 ft 224 kts 314°
2026-04-30 18:17 42.52786 19.15272 9287 ft 226 kts 313°
2026-04-30 18:18 42.53773 19.13594 9971 ft 231 kts 311°
2026-04-30 18:18 42.54923 19.11999 10369 ft 244 kts 326°
2026-04-30 18:18 42.56395 19.10717 10757 ft 259 kts 329°
2026-04-30 18:18 42.57970 19.09378 11168 ft 274 kts 329°
2026-04-30 18:19 42.59604 19.07981 11805 ft 279 kts 329°
2026-04-30 18:19 42.61252 19.06566 12533 ft 281 kts 329°
2026-04-30 18:19 42.62914 19.05137 13233 ft 284 kts 329°
2026-04-30 18:19 42.64587 19.03693 13911 ft 286 kts 328°
2026-04-30 18:20 42.66253 19.02254 14526 ft 289 kts 329°
2026-04-30 18:20 42.67951 19.00790 15181 ft 290 kts 328°
2026-04-30 18:20 42.69659 18.99320 15796 ft 292 kts 328°
2026-04-30 18:20 42.71407 18.97809 16434 ft 294 kts 328°
2026-04-30 18:21 42.73114 18.96334 17063 ft 296 kts 328°
2026-04-30 18:21 42.74856 18.94827 17685 ft 298 kts 328°
2026-04-30 18:21 42.76610 18.93307 18301 ft 300 kts 328°
2026-04-30 18:21 42.78369 18.91755 18857 ft 302 kts 326°
2026-04-30 18:22 42.80101 18.90102 19383 ft 305 kts 324°
2026-04-30 18:22 42.83540 18.86646 20436 ft 309 kts 323°
2026-04-30 18:22 42.85272 18.84887 20951 ft 312 kts 323°
2026-04-30 18:23 42.87020 18.83120 21440 ft 314 kts 323°
2026-04-30 18:23 42.88787 18.81344 21942 ft 316 kts 323°
2026-04-30 18:23 42.90563 18.79568 22424 ft 318 kts 323°
2026-04-30 18:23 42.92365 18.77769 22900 ft 321 kts 322°
2026-04-30 18:24 42.96040 18.74107 23454 ft 338 kts 322°
2026-04-30 18:24 42.97970 18.72178 23595 ft 350 kts 322°
2026-04-30 18:24 42.99946 18.70198 23739 ft 362 kts 322°
2026-04-30 18:25 43.02002 18.68138 23961 ft 371 kts 322°
2026-04-30 18:25 43.06202 18.63931 24736 ft 376 kts 322°
2026-04-30 18:25 43.08313 18.61809 25131 ft 378 kts 322°
2026-04-30 18:26 43.12643 18.57635 25902 ft 383 kts 330°
2026-04-30 18:26 43.15104 18.56207 26288 ft 388 kts 341°
2026-04-30 18:26 43.17767 18.55489 26664 ft 394 kts 352°
2026-04-30 18:27 43.23286 18.55016 27382 ft 399 kts 353°
2026-04-30 18:27 43.26062 18.54777 27743 ft 401 kts 353°
2026-04-30 18:28 43.31623 18.54293 28438 ft 405 kts 353°
2026-04-30 18:28 43.34439 18.54046 28759 ft 407 kts 353°
2026-04-30 18:28 43.40129 18.53548 29427 ft 412 kts 353°
2026-04-30 18:29 43.42991 18.53296 29735 ft 414 kts 353°
2026-04-30 18:29 43.51699 18.52520 30637 ft 421 kts 353°
2026-04-30 18:30 43.57522 18.52005 31293 ft 421 kts 353°
2026-04-30 18:30 43.63375 18.51489 32009 ft 421 kts 353°
2026-04-30 18:31 43.66297 18.51232 32373 ft 421 kts 353°
2026-04-30 18:31 43.72137 18.50728 33108 ft 420 kts 353°
2026-04-30 18:32 43.77980 18.50210 33812 ft 421 kts 352°
2026-04-30 18:32 43.80898 18.49944 34175 ft 421 kts 352°
2026-04-30 18:32 43.86742 18.50115 34751 ft 424 kts
2026-04-30 18:33 43.89657 18.50555 34982 ft 419 kts 355°
2026-04-30 18:33 43.95411 18.49536 35334 ft 418 kts 346°
2026-04-30 18:33 43.98272 18.48780 35553 ft 419 kts 347°
2026-04-30 18:34 44.01163 18.48145 35813 ft 420 kts 349°
2026-04-30 18:34 44.06993 18.47375 36266 ft 422 kts 353°
2026-04-30 18:35 44.12882 18.46972 36327 ft 424 kts 354°
2026-04-30 18:35 44.18744 18.46571 36332 ft 424 kts 354°
2026-04-30 18:36 44.27563 18.45779 36334 ft 423 kts 353°
2026-04-30 18:37 44.36385 18.44940 36333 ft 423 kts 353°
2026-04-30 18:37 44.42270 18.44410 36338 ft 423 kts 353°
2026-04-30 18:38 44.48150 18.43882 36338 ft 423 kts 354°
2026-04-30 18:38 44.54035 18.43343 36338 ft 423 kts 354°
2026-04-30 18:39 44.59914 18.42796 36341 ft 424 kts 354°
2026-04-30 18:39 44.65751 18.42263 36344 ft 423 kts 354°
2026-04-30 18:40 44.71671 18.41729 36346 ft 423 kts 354°
2026-04-30 18:40 44.77563 18.41190 36350 ft 423 kts 354°
2026-04-30 18:41 44.83397 18.40654 36352 ft 423 kts 354°
2026-04-30 18:41 44.89277 18.40113 36354 ft 423 kts 354°
2026-04-30 18:42 44.95155 18.39568 36355 ft 423 kts 354°
2026-04-30 18:42 45.03962 18.38748 36356 ft 423 kts 354°
2026-04-30 18:45 45.36333 18.39443 36357 ft 423 kts
2026-04-30 18:46 45.42212 18.39732 36354 ft 423 kts
2026-04-30 18:46 45.48088 18.40029 36355 ft 423 kts
2026-04-30 18:47 45.53968 18.40316 36357 ft 422 kts
2026-04-30 18:47 45.59844 18.40596 36356 ft 422 kts
2026-04-30 18:48 45.65712 18.40880 36361 ft 422 kts
2026-04-30 18:48 45.71592 18.41177 36363 ft 422 kts
2026-04-30 18:49 45.77460 18.41547 36368 ft 422 kts
2026-04-30 18:49 45.83312 18.42259 36367 ft 422 kts
2026-04-30 18:50 45.89160 18.43072 36367 ft 422 kts
2026-04-30 18:50 45.95001 18.43815 36370 ft 421 kts
2026-04-30 18:51 46.00813 18.44508 36367 ft 421 kts
2026-04-30 18:51 46.06649 18.45211 36369 ft 421 kts
2026-04-30 18:52 46.12487 18.45921 36311 ft 420 kts
2026-04-30 18:52 46.15419 18.46275 35508 ft 425 kts
2026-04-30 18:52 46.18384 18.46637 34700 ft 430 kts
2026-04-30 18:52 46.21359 18.47004 34094 ft 427 kts
2026-04-30 18:53 46.24304 18.47363 33522 ft 421 kts
2026-04-30 18:53 46.27198 18.47716 32639 ft 413 kts
2026-04-30 18:53 46.30036 18.48065 31854 ft 404 kts
2026-04-30 18:53 46.32769 18.48404 31467 ft 386 kts
2026-04-30 18:54 46.35408 18.48731 31061 ft 375 kts
2026-04-30 18:54 46.37993 18.49050 30664 ft 372 kts
2026-04-30 18:54 46.40560 18.49367 30236 ft 369 kts
2026-04-30 18:54 46.43106 18.49680 29837 ft 364 kts
2026-04-30 18:55 46.45606 18.49986 29475 ft 360 kts
2026-04-30 18:55 46.50555 18.50595 28738 ft 352 kts
2026-04-30 18:55 46.52954 18.50891 28391 ft 348 kts
2026-04-30 18:56 46.57730 18.51484 27692 ft 340 kts
2026-04-30 18:56 46.60071 18.51775 27348 ft 336 kts
2026-04-30 18:56 46.62386 18.52062 27002 ft 332 kts
2026-04-30 18:57 46.66933 18.52632 26308 ft 323 kts
2026-04-30 18:57 46.69163 18.52908 25966 ft 320 kts
2026-04-30 18:57 46.71365 18.53178 25613 ft 316 kts
2026-04-30 18:58 46.75753 18.53719 24915 ft 329 kts
2026-04-30 18:58 46.78075 18.54013 24534 ft 336 kts
2026-04-30 18:58 46.80380 18.54306 24148 ft 333 kts
2026-04-30 18:59 46.84962 18.54877 23330 ft 329 kts
2026-04-30 19:00 46.91744 18.55725 22181 ft 323 kts
2026-04-30 19:00 46.93977 18.56009 21793 ft 321 kts
2026-04-30 19:00 46.98383 18.56665 21047 ft 316 kts 13°
2026-04-30 19:01 47.02329 18.59255 20235 ft 311 kts 31°
2026-04-30 19:01 47.04171 18.60906 19824 ft 309 kts 31°
2026-04-30 19:02 47.07210 18.63603 19150 ft 306 kts 31°
2026-04-30 19:02 47.11431 18.67352 18165 ft 302 kts 31°
2026-04-30 19:03 47.14990 18.70511 17375 ft 296 kts 31°
2026-04-30 19:03 47.17627 18.73687 16719 ft 294 kts 52°
2026-04-30 19:04 47.18971 18.79281 15935 ft 300 kts 85°
2026-04-30 19:04 47.19013 18.85395 15142 ft 299 kts 85°
2026-04-30 19:05 47.19070 18.91492 14336 ft 298 kts 85°
2026-04-30 19:05 47.19148 18.97558 13508 ft 294 kts 81°
2026-04-30 19:06 47.20568 19.02954 12754 ft 282 kts 50°
2026-04-30 19:06 47.21927 19.04995 12376 ft 279 kts 41°
2026-04-30 19:06 47.24788 19.08783 11638 ft 275 kts 42°
2026-04-30 19:07 47.27596 19.12550 10908 ft 272 kts 42°
2026-04-30 19:07 47.28997 19.14428 10544 ft 271 kts 42°
2026-04-30 19:08 47.31782 19.18167 9795 ft 267 kts 45°
2026-04-30 19:08 47.32686 19.22984 9512 ft 254 kts 106°
2026-04-30 19:08 47.31741 19.25189 9159 ft 260 kts 129°
2026-04-30 19:09 47.29288 19.29112 8077 ft 261 kts 129°
2026-04-30 19:09 47.28055 19.31067 7538 ft 260 kts 130°
2026-04-30 19:09 47.26827 19.33022 6955 ft 261 kts 130°
2026-04-30 19:10 47.24425 19.36922 6029 ft 251 kts 122°
2026-04-30 19:10 47.23918 19.41593 4988 ft 232 kts 68°
2026-04-30 19:11 47.24751 19.43585 4542 ft 231 kts 43°
2026-04-30 19:11 47.27103 19.46521 4105 ft 206 kts 27°
2026-04-30 19:11 47.28393 19.47205 3961 ft 191 kts 11°
2026-04-30 19:12 47.29707 19.47286 3841 ft 193 kts 354°
2026-04-30 19:12 47.31007 19.46778 3651 ft 195 kts 337°
2026-04-30 19:12 47.32150 19.45676 3428 ft 199 kts 318°
2026-04-30 19:13 47.34030 19.42680 2909 ft 197 kts 315°
2026-04-30 19:13 47.35869 19.39729 2362 ft 193 kts 315°
2026-04-30 19:13 47.36751 19.38310 2100 ft 181 kts 315°
2026-04-30 19:14 47.37554 19.37016 1879 ft 160 kts 315°
2026-04-30 19:14 47.38264 19.35875 1666 ft 146 kts 315°
2026-04-30 19:14 47.38951 19.34775 1460 ft 145 kts 316°
2026-04-30 19:14 47.39636 19.33678 1247 ft 144 kts 314°
2026-04-30 19:15 47.40293 19.32611 1062 ft 142 kts 313°
2026-04-30 19:15 47.41618 19.30475 662 ft 141 kts 313°
2026-04-30 19:15 47.42281 19.29408 501 ft 141 kts 313°
2026-04-30 19:16 47.42916 19.28392 454 ft 118 kts 312°
2026-04-30 19:16 47.43354 19.27680 464 ft 69 kts 312°
2026-04-30 19:16 47.43732 19.26980 473 ft 26 kts 290°
2026-04-30 19:17 47.43766 19.26780 462 ft 19 kts 286°
2026-04-30 19:17 47.43799 19.26518 459 ft 9 kts 277°
2026-04-30 19:17 47.43763 19.26434 458 ft 12 kts 221°
2026-04-30 19:18 47.43658 19.26370 456 ft 8 kts 134°
2026-04-30 19:18 47.43593 19.26467 458 ft 11 kts 133°
2026-04-30 19:18 47.43546 19.26542 458 ft 7 kts 132°
2026-04-30 19:19 47.43528 19.26570 458 ft 3 kts 142°
2026-04-30 19:19 47.43504 19.26566 458 ft 4 kts 205°
2026-04-30 19:19 47.43477 19.26530 457 ft 0 kts 223°